Cairo, Egypt

12:12 PM EET on February 25, 2017 (GMT +0200)
Cairo International

Weather History for HECA - April, 2013

Change the Weather History Date:

Monday, April 1, 2013

  Actual Average Record
Temperature  
Mean Temperature 76 °F -  
Max Temperature 82 °F 80 °F 95 °F (2011)
Min Temperature 69 °F 58 °F 53 °F (1998)
Cooling Degree Days 10    
Growing Degree Days 26 (Base 50)    
Moisture  
Dew Point 42 °F    
Average Humidity 29    
Maximum Humidity 53    
Minimum Humidity 9    
Precipitation  
Precipitation 0.00 in 0.00 in - ()
Sea Level Pressure  
Sea Level Pressure 29.90 in    
Wind  
Wind Speed 12 mph ()    
Max Wind Speed 21 mph    
Max Gust Speed -    
Visibility 1.7 miles    
Events      
Averages and records for this station are not official NWS values.
T = Trace of Precipitation, MM = Missing Value Source: Averaged Metar Reports

Daily Weather History Graph

Daily Weather History Graph

Search for Another Location

Airport or City:

Trip Planner

Search our weather history database for the weather conditions in past years. The results will help you decide how hot, cold, wet, or windy it might be!

Date:

Astronomy

Apr. 01, 2013 Rise Set
Actual Time 5:43 AM EET 6:13 PM EET
Civil Twilight 5:19 AM EET 6:37 PM EET
Nautical Twilight 4:51 AM EET 7:05 PM EET
Astronomical Twilight 4:22 AM EET 7:34 PM EET
Moon 11:42 PM EET (4/1) 9:28 AM EET (4/1)
Length of Visible Light 13h 17m
Length of Day
12h 29m
Waning Gibbous, 70% of the Moon is Illuminated
Apr 1
Waning Gibbous
Apr 3
Last Quarter
Apr 10
New
Apr 18
First Quarter
Apr 25
Full

Hourly Weather History & Observations

Time (EET) Temp. Dew Point Humidity Pressure Visibility Wind Dir Wind Speed Gust Speed Precip Events Conditions
12:00 AM 80.6 °F 28.4 °F 15% 29.77 in 3.7 mi South 11.5 mph - N/A   Unknown
1:30 AM 78.8 °F 30.2 °F 17% 29.80 in 3.7 mi SSW 11.5 mph - N/A   Unknown
2:00 AM 78 °F 31 °F 9% 29.80 in 2 mi SSW 12.7 mph - -   Blowing Sand
2:00 AM 78.8 °F 30.2 °F 17% 29.80 in 2.5 mi SSW 12.7 mph - N/A   Sand
2:30 AM 77.0 °F 32.0 °F 19% 29.80 in 2.5 mi South 12.7 mph - N/A   Sand
3:00 AM 77.0 °F 32.0 °F 19% 29.80 in 2.5 mi South 11.5 mph - N/A   Sand
3:30 AM 77.0 °F 33.8 °F 21% 29.80 in 2.5 mi South 11.5 mph - N/A   Sand
4:00 AM 77.0 °F 35.6 °F 22% 29.80 in 1.2 mi South 13.8 mph - N/A   Sand
4:30 AM 77.0 °F 35.6 °F 22% 29.83 in 1.2 mi South 15.0 mph - N/A   Sand
5:00 AM 77.0 °F 35.6 °F 22% 29.83 in 1.0 mi South 16.1 mph - N/A   Sand
5:30 AM 75.2 °F 35.6 °F 24% 29.83 in 1.0 mi South 11.5 mph - N/A   Sand
6:00 AM 75.2 °F 33.8 °F 22% 29.83 in 1.0 mi South 15.0 mph - N/A   Sand
6:30 AM 75.2 °F 35.6 °F 24% 29.86 in 1.0 mi SSW 11.5 mph - N/A   Sand
7:00 AM 75.2 °F 35.6 °F 24% 29.86 in 1.0 mi South 13.8 mph - N/A   Sand
7:30 AM 75.2 °F 37.4 °F 25% 29.86 in 1.0 mi SW 15.0 mph - N/A   Sand
8:00 AM 75 °F 37 °F 15% 29.88 in 1 mi SW 13.8 mph - -   Blowing Sand
8:00 AM 75.2 °F 37.4 °F 25% 29.89 in 1.0 mi SW 13.8 mph - N/A   Sand
8:30 AM 77.0 °F 39.2 °F 26% 29.89 in 1.0 mi SSW 11.5 mph - N/A   Sand
9:00 AM 77.0 °F 39.2 °F 26% 29.89 in 1.2 mi SW 12.7 mph - N/A   Sand
9:30 AM 78.8 °F 39.2 °F 24% 29.92 in 1.2 mi SW 13.8 mph - N/A   Sand
10:00 AM 78.8 °F 41.0 °F 26% 29.92 in 1.2 mi WSW 12.7 mph - N/A   Sand
10:30 AM 80.6 °F 41.0 °F 24% 29.92 in 1.2 mi SW 13.8 mph - N/A   Sand
11:00 AM 80.6 °F 41.0 °F 24% 29.92 in 1.2 mi WSW 13.8 mph - N/A   Sand
11:30 AM 80.6 °F 44.6 °F 28% 29.92 in 1.2 mi West 19.6 mph - N/A   Sand
12:00 PM 80.6 °F 42.8 °F 26% 29.92 in 1.2 mi WSW 20.7 mph - N/A   Sand
12:30 PM 80.6 °F 46.4 °F 30% 29.92 in 1.2 mi West 18.4 mph - N/A   Sand
1:00 PM 82.4 °F 44.6 °F 26% 29.92 in 1.2 mi WSW 20.7 mph - N/A   Sand
1:30 PM 82.4 °F 44.6 °F 26% 29.89 in 1.2 mi WSW 17.3 mph - N/A   Sand
2:00 PM 82 °F 46 °F 18% 29.91 in 1 mi WSW 16.1 mph - -   Blowing Sand
2:00 PM 82.4 °F 46.4 °F 28% 29.89 in 1.2 mi WSW 16.1 mph - N/A   Sand
2:30 PM 82.4 °F 46.4 °F 28% 29.89 in 1.2 mi West 15.0 mph - N/A   Sand
3:00 PM 82.4 °F 46.4 °F 28% 29.89 in 1.9 mi West 16.1 mph - N/A   Sand
3:30 PM 82.4 °F 46.4 °F 28% 29.89 in 2.5 mi West 11.5 mph - N/A   Sand
4:00 PM 82.4 °F 44.6 °F 26% 29.89 in 2.5 mi West 13.8 mph - N/A   Sand
4:30 PM 80.6 °F 50.0 °F 34% 29.92 in 3.7 mi WNW 13.8 mph - N/A   Unknown
5:00 PM 78.8 °F 48.2 °F 34% 29.92 in - NW 15.0 mph - N/A   Clear
5:30 PM 78.8 °F 44.6 °F 30% 29.92 in - WNW 11.5 mph - N/A   Clear
6:00 PM 77.0 °F 48.2 °F 36% 29.95 in - NW 12.7 mph - N/A   Clear
6:30 PM 75.2 °F 51.8 °F 44% 29.95 in - NW 11.5 mph - N/A   Clear
7:00 PM 73.4 °F 51.8 °F 47% 29.95 in - NNW 11.5 mph - N/A   Clear
7:30 PM 73.4 °F 48.2 °F 41% 29.98 in - NW 11.5 mph - N/A   Clear
8:00 PM 72 °F 49 °F 33% 29.99 in 6 mi NNW 10.4 mph - -  
8:00 PM 71.6 °F 48.2 °F 43% 29.98 in - NNW 10.4 mph - N/A   Clear
8:30 PM 71.6 °F 48.2 °F 43% 30.01 in - NW 8.1 mph - N/A   Clear
9:00 PM 71.6 °F 50.0 °F 46% 30.01 in - North 8.1 mph - N/A   Clear
9:30 PM 71.6 °F 50.0 °F 46% 30.01 in - North 8.1 mph - N/A   Clear
10:00 PM 69.8 °F 51.8 °F 53% 30.04 in - NNW 6.9 mph - N/A   Clear
10:30 PM 69.8 °F 51.8 °F 53% 30.04 in - NNW 6.9 mph - N/A   Clear
11:00 PM 69.8 °F 51.8 °F 53% 30.04 in - North 3.5 mph - N/A   Clear
11:30 PM 69.8 °F 51.8 °F 53% 30.04 in - North 3.5 mph - N/A   Clear